KINEIS-1C

Last updated on Sun Apr 12 2026 00:02:47 GMT+0000 (Coordinated Universal Time)

1 60081U 24114C 26101.51671716 .00000790 00000+0 11013-3 0 9995 2 60081 97.9901 125.8451 0002320 75.4914 284.6555 14.80513298 97513
UTC large
Height (km)
Speed (km/s)
/
Latitude / Longitude
Inclination (degrees)
Orbital Period (minutes)
Azimuth
Elevation
Range (km)
Doppler Factor

Next 0 passes for location: London (51.5072 / 0.1276)

Sorry there are no passes over London.
KINEIS-1C